Homestead AFB, FL

8:25 PM EDT on March 25, 2017 (GMT -0400)
Dade County-Homestead Regional

Weather History for KHST - September, 2013

Change the Weather History Date:

Sunday, September 15, 2013

  Actual Average Record
Temperature  
Mean Temperature 82 °F -  
Max Temperature 88 °F 88 °F 94 °F (1933)
Min Temperature 75 °F 71 °F 66 °F (1939)
Cooling Degree Days 16    
Growing Degree Days 32 (Base 50)    
Moisture  
Dew Point 76 °F    
Average Humidity 89    
Maximum Humidity 94    
Minimum Humidity 70    
Precipitation  
Precipitation 1.13 in - - ()
Sea Level Pressure  
Sea Level Pressure 30.01 in    
Wind  
Wind Speed 8 mph (ENE)    
Max Wind Speed 23 mph    
Max Gust Speed 36 mph    
Visibility 9 miles    
Events Fog , Rain , Thunderstorm    
Averages and records for this station are not official NWS values.
T = Trace of Precipitation, MM = Missing Value Source: NWS Daily Summary

Daily Weather History Graph

Daily Weather History Graph

Search for Another Location

Airport or City:

Trip Planner

Search our weather history database for the weather conditions in past years. The results will help you decide how hot, cold, wet, or windy it might be!

Date:

Astronomy

Sep. 15, 2013 Rise Set
Actual Time 7:07 AM EDT 7:25 PM EDT
Civil Twilight 6:44 AM EDT 7:48 PM EDT
Nautical Twilight 6:17 AM EDT 8:15 PM EDT
Astronomical Twilight 5:50 AM EDT 8:42 PM EDT
Moon 4:34 PM EDT (9/15) 3:04 AM EDT (9/15)
Length of Visible Light 13h 03m
Length of Day
12h 17m
Waxing Gibbous, 82% of the Moon is Illuminated
Sep 15
Waxing Gibbous
Sep 19
Full
Sep 26
Last Quarter
Oct 4
New
Oct 11
First Quarter

Hourly Weather History & Observations

Time (EDT) Temp. Heat Index Dew Point Humidity Pressure Visibility Wind Dir Wind Speed Gust Speed Precip Events Conditions
12:58 AM 82.6 °F 90.2 °F 75.9 °F 80% 29.97 in 10.0 mi ESE 8.1 mph - N/A   Clear
1:58 AM 82.0 °F 89.7 °F 76.3 °F 83% 29.95 in 10.0 mi ESE 5.8 mph - N/A   Clear
2:58 AM 79.9 °F - 77.0 °F 91% 29.95 in 10.0 mi ENE 5.8 mph - N/A Thunderstorm Clear
3:58 AM 79.9 °F - 76.8 °F 90% 29.94 in 10.0 mi ENE 1.2 mph - N/A   Clear
4:58 AM 79.9 °F - 76.3 °F 89% 29.94 in 10.0 mi ENE 4.6 mph - N/A   Clear
5:58 AM 79.9 °F - 76.3 °F 89% 29.95 in 10.0 mi East 3.5 mph - N/A   Clear
6:58 AM 78.8 °F - 76.3 °F 92% 29.97 in 10.0 mi ENE 3.5 mph - N/A   Partly Cloudy
7:46 AM 80.6 °F 87.1 °F 77.0 °F 89% 29.97 in 10.0 mi East 11.5 mph - N/A Rain Light Rain
7:51 AM 80.6 °F 87.1 °F 77.0 °F 89% 29.97 in 1.5 mi ENE 13.8 mph 21.9 mph N/A Rain Heavy Rain
7:58 AM 78.8 °F - 77.0 °F 94% 29.98 in 2.0 mi ENE 9.2 mph 21.9 mph N/A Rain , Thunderstorm Heavy Thunderstorms and Rain
8:05 AM 78.8 °F - 77.0 °F 94% 29.98 in 8.0 mi East 6.9 mph - N/A Rain , Thunderstorm Light Thunderstorms and Rain
8:12 AM 80.6 °F 87.1 °F 77.0 °F 89% 29.98 in 10.0 mi ENE 4.6 mph - N/A Thunderstorm Scattered Clouds
8:45 AM 82.4 °F 92.4 °F 78.8 °F 89% 29.99 in 10.0 mi ENE 5.8 mph - N/A   Mostly Cloudy
8:58 AM 82.4 °F 92.4 °F 78.8 °F 89% 30.00 in 10.0 mi East 5.8 mph - 0.01 in   Mostly Cloudy
9:03 AM 82.4 °F 92.4 °F 78.8 °F 89% 29.99 in 10.0 mi ENE 5.8 mph - N/A   Scattered Clouds
9:39 AM 84.2 °F 96.1 °F 78.8 °F 84% 30.00 in 10.0 mi East 6.9 mph - N/A Rain Light Rain
9:51 AM 84.2 °F 96.1 °F 78.8 °F 84% 30.00 in 10.0 mi Variable 5.8 mph - N/A   Scattered Clouds
9:58 AM 84.4 °F 97.1 °F 79.3 °F 85% 30.01 in 10.0 mi East 11.5 mph - 0.01 in   Partly Cloudy
10:58 AM 87.3 °F 99.3 °F 77.4 °F 72% 30.03 in 10.0 mi East 16.1 mph - N/A   Partly Cloudy
11:58 AM 88.5 °F 101.6 °F 77.7 °F 70% 30.03 in 10.0 mi ESE 15.0 mph - N/A Thunderstorm Clear
12:01 PM 87.8 °F 99.7 °F 77.0 °F 70% 30.03 in 10.0 mi East 19.6 mph 25.3 mph N/A Thunderstorm Thunderstorm
12:10 PM 80.6 °F 86.2 °F 75.2 °F 84% 30.04 in 9.0 mi ENE 20.7 mph 35.7 mph N/A Rain , Thunderstorm Light Thunderstorms and Rain
12:11 PM 80.6 °F 86.2 °F 75.2 °F 84% 30.04 in 1.5 mi ENE 23.0 mph 35.7 mph N/A Rain , Thunderstorm Light Thunderstorms and Rain
12:22 PM 77.0 °F - 75.2 °F 94% 30.04 in 1.5 mi ENE 23.0 mph 35.7 mph N/A Fog , Rain , Thunderstorm Heavy Thunderstorms and Rain
12:31 PM 77.0 °F - 75.2 °F 94% 30.03 in 2.0 mi ENE 23.0 mph 29.9 mph N/A Rain , Thunderstorm Heavy Thunderstorms and Rain
12:36 PM 77.0 °F - 75.2 °F 94% 30.04 in 4.0 mi ENE 15.0 mph 29.9 mph N/A Rain , Thunderstorm Thunderstorms and Rain
12:56 PM 77.0 °F - 75.2 °F 94% 30.05 in 2.5 mi North 10.4 mph - N/A Rain , Thunderstorm Heavy Thunderstorms and Rain
12:58 PM 77.0 °F - 75.2 °F 94% 30.06 in 4.0 mi North 10.4 mph - 1.11 in Rain , Thunderstorm Light Thunderstorms and Rain
1:03 PM 77.0 °F - 75.2 °F 94% 30.04 in 7.0 mi North 11.5 mph - N/A Rain , Thunderstorm Light Thunderstorms and Rain
1:08 PM 77.0 °F - 75.2 °F 94% 30.04 in 10.0 mi North 11.5 mph - N/A Rain , Thunderstorm Light Thunderstorms and Rain
1:09 PM 77.0 °F - 75.2 °F 94% 30.04 in 10.0 mi North 11.5 mph - N/A Thunderstorm Thunderstorm
1:13 PM 77.0 °F - 75.2 °F 94% 30.04 in 10.0 mi North 11.5 mph - N/A Thunderstorm Scattered Clouds
1:45 PM 75.2 °F - 73.4 °F 94% 30.01 in 10.0 mi NNE 5.8 mph - N/A   Partly Cloudy
1:58 PM 75.6 °F - 73.4 °F 93% 30.02 in 10.0 mi NNE 6.9 mph - 0.00 in   Clear
2:58 PM 76.6 °F - 74.3 °F 92% 30.01 in 10.0 mi North 5.8 mph - N/A   Clear
3:01 PM 77.0 °F - 75.2 °F 94% 30.00 in 10.0 mi North 5.8 mph - N/A   Light Drizzle
3:30 PM 77.0 °F - 75.2 °F 94% 29.98 in 10.0 mi NNE 5.8 mph - N/A   Partly Cloudy
3:52 PM 78.8 °F - 75.2 °F 89% 29.98 in 10.0 mi NNE 6.9 mph - N/A   Light Drizzle
3:58 PM 78.1 °F - 75.4 °F 91% 29.99 in 10.0 mi North 5.8 mph - 0.00 in   Light Drizzle
4:04 PM 78.8 °F - 75.2 °F 89% 29.99 in 10.0 mi NNE 3.5 mph - N/A   Clear
4:58 PM 79.2 °F - 76.5 °F 91% 30.01 in 10.0 mi Calm Calm - 0.00 in   Partly Cloudy
5:58 PM 81.1 °F 88.4 °F 77.4 °F 88% 30.02 in 10.0 mi East 3.5 mph - N/A   Clear
6:57 PM 82.4 °F 90.9 °F 77.0 °F 84% 30.01 in 10.0 mi ESE 4.6 mph - N/A   Light Drizzle
6:58 PM 81.9 °F 90.5 °F 77.9 °F 88% 30.02 in 10.0 mi ESE 4.6 mph - N/A   Light Drizzle
7:07 PM 82.4 °F 90.9 °F 77.0 °F 84% 30.02 in 10.0 mi East 8.1 mph - N/A   Partly Cloudy
7:58 PM 81.1 °F 87.4 °F 75.4 °F 83% 30.03 in 10.0 mi East 2.3 mph - 0.00 in   Clear
8:58 PM 79.2 °F - 77.0 °F 93% 30.03 in 10.0 mi North 4.6 mph - N/A   Clear
9:58 PM 79.5 °F - 77.2 °F 93% 30.04 in 10.0 mi ENE 4.6 mph - N/A   Clear
10:58 PM 79.5 °F - 75.4 °F 87% 30.04 in 10.0 mi NE 11.5 mph - N/A   Mostly Cloudy
11:58 PM 80.6 °F 86.8 °F 76.5 °F 87% 30.03 in 10.0 mi East 6.9 mph - N/A   Partly Cloudy